Location: Unspecified
(61.6479°N, 0.0000°E)
Time: 02:52:46
(UTC+00:00)

MICRO-LABSAT - Visible Passes

Search period start: 04 April 2026 00:00
Search period end: 14 April 2026 00:00
Orbit: 781 x 797 km, 98.8° (Epoch: 28 March)

Date Brightness Start Highest point End Pass type
(mag) Time Alt. Az. Time Alt. Az. Time Alt. Az.
4 Apr 10.4 02:43:07 10° NNE 02:47:34 28° E 02:51:59 10° SSE visible
4 Apr 8.6 04:22:21 10° NNE 04:27:34 78° WNW 04:32:44 10° SSW visible
5 Apr 10.9 02:13:41 10° NE 02:17:18 19° E 02:20:53 10° SE visible
5 Apr 8.8 03:52:28 10° NNE 03:57:41 72° ESE 04:02:51 10° SSW visible
6 Apr 11.2 01:44:53 10° NE 01:46:54 12° ENE 01:48:55 10° E visible
6 Apr 9.5 03:22:39 10° NNE 03:27:41 47° E 03:32:40 10° S visible
7 Apr 10.2 02:52:56 10° NNE 02:57:35 32° E 03:02:10 10° SSE visible
8 Apr 10.8 02:23:26 10° NE 02:27:22 21° E 02:31:15 10° SE visible
8 Apr 8.7 04:02:23 10° NNE 04:07:37 81° ESE 04:12:48 10° SSW visible
9 Apr 11.1 01:54:19 10° NE 01:57:00 14° E 01:59:40 10° ESE visible
9 Apr 9.3 03:32:33 10° NNE 03:37:39 54° ESE 03:42:43 10° S visible
10 Apr 10.0 03:02:48 10° NNE 03:07:35 36° E 03:12:20 10° SSE visible
11 Apr 10.6 02:33:12 10° NE 02:37:24 24° E 02:41:34 10° SE visible
12 Apr 11.1 02:03:55 10° NE 02:07:05 16° E 02:10:14 10° ESE visible
12 Apr 9.1 03:42:26 10° NNE 03:47:36 62° ESE 03:52:43 10° S visible
13 Apr 11.5 01:36:08 10° ENE 01:36:39 10° ENE 01:37:09 10° E visible
13 Apr 9.8 03:12:39 10° NNE 03:17:34 41° E 03:22:26 10° SSE visible
